Stündliche Wetter Holoholenka

Heute, 15 Juni, Dienstag

Zeit Temperatur Niederschläge Wind Luftdruck Luftfeuchtigkeit
00:00 +13°C° 0 mm 0 m/S 745 mmHg 86%
01:00 +12°C° 0 mm 0 m/S 745 mmHg 88%
02:00 +12°C° 0 mm 0 m/S 745 mmHg 89%
03:00 +13°C° 0 mm 0 m/S 745 mmHg 85%
04:00 +14°C° 0 mm 0 m/S 744 mmHg 82%
05:00 +15°C° 0 mm 1 m/S 744 mmHg 79%
06:00 +18°C° 0 mm 1 m/S 744 mmHg 73%
07:00 +20°C° 0 mm 1 m/S 744 mmHg 67%
08:00 +21°C° 0 mm 2 m/S 744 mmHg 61%
09:00 +23°C° 0 mm 2 m/S 743 mmHg 56%
10:00 +24°C° 0 mm 3 m/S 743 mmHg 51%
11:00 +25°C° 0 mm 3 m/S 743 mmHg 46%
12:00 +25°C° 0 mm 3 m/S 742 mmHg 44%
13:00 +26°C° 0 mm 3 m/S 742 mmHg 43%
14:00 +26°C° 0 mm 3 m/S 742 mmHg 41%
15:00 +26°C° 0 mm 3 m/S 741 mmHg 44%
16:00 +25°C° 0 mm 3 m/S 741 mmHg 46%
17:00 +25°C° 0 mm 3 m/S 741 mmHg 49%
18:00 +23°C° 0 mm 2 m/S 741 mmHg 57%
19:00 +20°C° 0 mm 2 m/S 741 mmHg 65%
20:00 +18°C° 0 mm 2 m/S 741 mmHg 73%
21:00 +17°C° 0 mm 2 m/S 741 mmHg 77%
22:00 +16°C° 0 mm 2 m/S 742 mmHg 81%
23:00 +15°C° 0 mm 2 m/S 742 mmHg 85%

Morgen, 16 Juni, Mittwoch

Zeit Temperatur Niederschläge Wind Luftdruck Luftfeuchtigkeit
00:00 +15°C° 0 mm 2 m/S 742 mmHg 87%
01:00 +15°C° 0 mm 2 m/S 742 mmHg 88%
02:00 +15°C° 0 mm 2 m/S 742 mmHg 90%
03:00 +15°C° 0 mm 2 m/S 743 mmHg 88%
04:00 +15°C° 0 mm 2 m/S 743 mmHg 86%
05:00 +15°C° 0 mm 2 m/S 743 mmHg 84%
06:00 +16°C° 0 mm 3 m/S 744 mmHg 73%
07:00 +17°C° 0 mm 3 m/S 744 mmHg 62%
08:00 +19°C° 0 mm 3 m/S 745 mmHg 51%
09:00 +20°C° 0 mm 3 m/S 745 mmHg 45%
10:00 +21°C° 0 mm 3 m/S 745 mmHg 40%
11:00 +22°C° 0 mm 3 m/S 745 mmHg 34%
12:00 +22°C° 0 mm 4 m/S 746 mmHg 33%
13:00 +22°C° 0 mm 4 m/S 746 mmHg 31%
14:00 +23°C° 0 mm 4 m/S 746 mmHg 29%
15:00 +22°C° 0 mm 4 m/S 746 mmHg 32%
16:00 +22°C° 0 mm 3 m/S 746 mmHg 35%
17:00 +21°C° 0 mm 3 m/S 747 mmHg 38%
18:00 +19°C° 0 mm 2 m/S 747 mmHg 47%
19:00 +17°C° 0 mm 2 m/S 747 mmHg 56%
20:00 +15°C° 0 mm 1 m/S 748 mmHg 65%
21:00 +14°C° 0 mm 1 m/S 748 mmHg 67%
22:00 +13°C° 0 mm 1 m/S 748 mmHg 69%
23:00 +12°C° 0 mm 1 m/S 749 mmHg 71%

übermorgen, 17 Juni, Donnerstag

Zeit Temperatur Niederschläge Wind Luftdruck Luftfeuchtigkeit
00:00 +12°C° 0 mm 1 m/S 749 mmHg 72%
01:00 +11°C° 0 mm 1 m/S 750 mmHg 73%
02:00 +11°C° 0 mm 1 m/S 750 mmHg 74%
03:00 +12°C° 0 mm 1 m/S 750 mmHg 72%
04:00 +13°C° 0 mm 1 m/S 750 mmHg 70%
05:00 +14°C° 0 mm 1 m/S 751 mmHg 69%
06:00 +16°C° 0 mm 1 m/S 751 mmHg 61%
07:00 +18°C° 0 mm 2 m/S 751 mmHg 53%
08:00 +21°C° 0 mm 2 m/S 751 mmHg 45%
09:00 +23°C° 0 mm 2 m/S 751 mmHg 41%
10:00 +24°C° 0 mm 2 m/S 751 mmHg 38%
11:00 +25°C° 0 mm 2 m/S 751 mmHg 35%
12:00 +25°C° 0 mm 2 m/S 751 mmHg 34%
13:00 +26°C° 0 mm 3 m/S 751 mmHg 33%
14:00 +27°C° 0 mm 3 m/S 751 mmHg 32%
15:00 +26°C° 0 mm 2 m/S 751 mmHg 36%
16:00 +26°C° 0 mm 2 m/S 751 mmHg 40%
17:00 +25°C° 0 mm 2 m/S 751 mmHg 43%
18:00 +23°C° 0 mm 2 m/S 751 mmHg 52%
19:00 +21°C° 0 mm 1 m/S 752 mmHg 61%
20:00 +19°C° 0 mm 1 m/S 752 mmHg 69%
21:00 +18°C° 0 mm 1 m/S 752 mmHg 70%
22:00 +16°C° 0 mm 1 m/S 752 mmHg 72%
23:00 +15°C° 0 mm 0 m/S 752 mmHg 73%

18 Juni, Freitag

Zeit Temperatur Niederschläge Wind Luftdruck Luftfeuchtigkeit
00:00 +15°C° 0 mm 1 m/S 752 mmHg 75%
01:00 +15°C° 0 mm 1 m/S 753 mmHg 76%
02:00 +14°C° 0 mm 1 m/S 753 mmHg 78%
03:00 +15°C° 0 mm 1 m/S 753 mmHg 77%
04:00 +16°C° 0 mm 1 m/S 753 mmHg 75%
05:00 +18°C° 0 mm 1 m/S 753 mmHg 74%
06:00 +20°C° 0 mm 1 m/S 753 mmHg 66%
07:00 +22°C° 0 mm 1 m/S 753 mmHg 58%
08:00 +24°C° 0 mm 1 m/S 753 mmHg 50%
09:00 +25°C° 0 mm 2 m/S 753 mmHg 45%
10:00 +27°C° 0 mm 2 m/S 753 mmHg 41%
11:00 +28°C° 0 mm 2 m/S 752 mmHg 37%
12:00 +28°C° 0 mm 3 m/S 752 mmHg 36%
13:00 +29°C° 0 mm 3 m/S 752 mmHg 35%
14:00 +30°C° 0 mm 3 m/S 752 mmHg 33%
15:00 +29°C° 0 mm 3 m/S 751 mmHg 36%
16:00 +29°C° 0 mm 3 m/S 751 mmHg 39%
17:00 +29°C° 0 mm 3 m/S 751 mmHg 42%
18:00 +27°C° 0 mm 3 m/S 751 mmHg 52%
19:00 +24°C° 0 mm 2 m/S 751 mmHg 62%
20:00 +21°C° 0 mm 2 m/S 751 mmHg 72%
21:00 +20°C° 0 mm 2 m/S 751 mmHg 75%
22:00 +19°C° 0 mm 2 m/S 751 mmHg 77%
23:00 +18°C° 0 mm 2 m/S 751 mmHg 80%

19 Juni, Samstag

Zeit Temperatur Niederschläge Wind Luftdruck Luftfeuchtigkeit
00:00 +17°C° 0 mm 2 m/S 751 mmHg 82%
01:00 +17°C° 0 mm 2 m/S 751 mmHg 83%
02:00 +17°C° 0 mm 3 m/S 752 mmHg 84%
03:00 +18°C° 0 mm 3 m/S 752 mmHg 83%
04:00 +18°C° 0 mm 3 m/S 752 mmHg 81%
05:00 +19°C° 0 mm 3 m/S 752 mmHg 80%
06:00 +21°C° 0 mm 3 m/S 752 mmHg 72%
07:00 +22°C° 0 mm 3 m/S 752 mmHg 65%
08:00 +25°C° 0 mm 3 m/S 752 mmHg 57%
09:00 +26°C° 0 mm 3 m/S 752 mmHg 52%
10:00 +28°C° 0 mm 3 m/S 752 mmHg 47%
11:00 +29°C° 0 mm 3 m/S 752 mmHg 42%
12:00 +30°C° 0 mm 3 m/S 751 mmHg 40%
13:00 +30°C° 0 mm 3 m/S 751 mmHg 38%
14:00 +31°C° 0 mm 3 m/S 751 mmHg 35%
15:00 +30°C° 0 mm 3 m/S 751 mmHg 38%
16:00 +30°C° 0 mm 3 m/S 751 mmHg 40%
17:00 +30°C° 0 mm 2 m/S 751 mmHg 42%
18:00 +28°C° 0 mm 2 m/S 751 mmHg 52%
19:00 +25°C° 0 mm 2 m/S 751 mmHg 61%
20:00 +23°C° 0 mm 1 m/S 751 mmHg 70%
21:00 +22°C° 0 mm 1 m/S 751 mmHg 73%
22:00 +21°C° 0 mm 1 m/S 751 mmHg 75%
23:00 +20°C° 0 mm 1 m/S 751 mmHg 78%

20 Juni, Sonntag

Zeit Temperatur Niederschläge Wind Luftdruck Luftfeuchtigkeit
00:00 +19°C° 0 mm 1 m/S 751 mmHg 81%
01:00 +19°C° 0 mm 1 m/S 751 mmHg 83%
02:00 +17°C° 0 mm 2 m/S 751 mmHg 86%
03:00 +18°C° 0 mm 2 m/S 752 mmHg 85%
04:00 +20°C° 0 mm 1 m/S 752 mmHg 83%
05:00 +21°C° 0 mm 1 m/S 752 mmHg 81%
06:00 +21°C° 0 mm 2 m/S 751 mmHg 73%
07:00 +24°C° 0 mm 2 m/S 751 mmHg 66%
08:00 +26°C° 0 mm 3 m/S 751 mmHg 58%
09:00 +27°C° 0 mm 3 m/S 751 mmHg 51%
10:00 +28°C° 0 mm 3 m/S 751 mmHg 45%
11:00 +29°C° 0 mm 3 m/S 751 mmHg 39%
12:00 +30°C° 0 mm 3 m/S 750 mmHg 37%
13:00 +30°C° 0 mm 3 m/S 750 mmHg 35%
14:00 +31°C° 0 mm 3 m/S 750 mmHg 33%
15:00 +31°C° 0 mm 3 m/S 749 mmHg 36%
16:00 +30°C° 0 mm 3 m/S 749 mmHg 39%
17:00 +30°C° 0 mm 3 m/S 749 mmHg 42%
18:00 +28°C° 0 mm 3 m/S 749 mmHg 52%
19:00 +25°C° 0 mm 2 m/S 749 mmHg 61%
20:00 +23°C° 0 mm 2 m/S 749 mmHg 71%
21:00 +21°C° 0 mm 2 m/S 749 mmHg 74%
22:00 +20°C° 0 mm 2 m/S 749 mmHg 77%
23:00 +19°C° 0 mm 2 m/S 749 mmHg 81%
Mehr zeigen

Wir brauchen deine Erlaubnis

Meteoprog und unser Service Anbieter werden persönliche Daten aufbewahren, so wie Cookies, Geräte Bezeichnung oder ähnliche Technologien von deinem Gerät und Prozess, so wie Persönliche Daten Inhalte und Werbungen, genauso wie social Media und den Verkehr zu analysieren.

  • Aufbewahrung und/oder Zugang zu deiner Geräte Informationen.

    Cookies, Geräte Bezeichnung oder andere Informationen, können aufbewahrt oder Zugang zu deinem Gerät erhalten, für den Grund, der oben angegeben wird.

  • Personalisierte Werbung und Inhalte, Messungen, Einblick in das Publikum und Produkt Entwicklung.

    Werbungen und Inhalte können personalisiert werden, basierend auf ein Profil. Mehr Daten können besser personalisierte Werbungen und Inhalte hinzufügen. Werbung und Inhalte können gezeigt und gemessen werden. Einblicke über das Publikum, welche die Werbung gesehen haben und den Inhalt, können abgeleitet werden. So wie Daten können genutzt werden, um es zu verbessern oder die Benutzer Erfahrung zu verbessern das System und die Software.

Wenn du “Ich stimme zu” klickst, erlaubst du uns, die Cookies zu benutzen die Geräte Bezeichnung, den Web oder ähnliche Technologien zu benutzen. Deine Settings, können in deinem Gerät bei deinem Browser geändert werden.

Für den bestimmten Zweck, berechtigten Interessen beruhen darauf, mehr als auf den Inhalt. Du kannst mehr darüber in unseren Privaten und Cookie Politik lesen.